Location: S�deilles
(46.7500°N, 6.9329°E)
Time: 04:50:51
(UTC+00:00)

USA 238 - Pass Details

Date: 08 March 2021
Orbit: 994 x 1218 km, 63.4° (Epoch: 18 April)

Event Time Altitude Azimuth Distance (km) Brightness Sun altitude
Rises 19:34:33 0° 216° (SW) 3,714 6.8 -22.2°
Reaches altitude 10° 19:37:05 10° 216° (SW) 2,782 6.1 -22.6°
Maximum altitude 19:43:38 87° 128° (SE) 1,046 3.5 -23.7°
Drops below altitude 10° 19:50:33 10° 40° (NE) 2,929 5.8 -24.8°
Sets 19:53:17 0° 40° (NE) 3,922 6.5 -25.2°
